| time (UTC) | temp F | wind direction | speed knots | gust knots | rain 1hr in | rain 24hr in | rain mn in | humidity % | barometer mb |
| 20260504233527 | 70 | 243 | 0.9 | 5.2 | 0.00 | 0.00 | 0.00 | 40 | 1009.8 |
| 20260504233027 | 70 | 104 | 0.0 | 5.2 | 0.00 | 0.00 | 0.00 | 40 | 1009.5 |
| 20260504232515 | 71 | 283 | 0.9 | 5.2 | 0.00 | 0.00 | 0.00 | 39 | 1009.7 |
| 20260504232015 | 71 | 266 | 1.7 | 7.0 | 0.00 | 0.00 | 0.00 | 39 | 1009.4 |
| 20260504231517 | 71 | 247 | 1.7 | 7.0 | 0.00 | 0.00 | 0.00 | 38 | 1009.6 |
| 20260504231005 | 72 | 187 | 0.9 | 6.1 | 0.00 | 0.00 | 0.00 | 38 | 1009.6 |
| 20260504230505 | 72 | 95 | 0.9 | 6.1 | 0.00 | 0.00 | 0.00 | 38 | 1009.5 |
| 20260504230005 | 72 | 298 | 0.0 | 6.1 | 0.00 | 0.00 | 0.00 | 38 | 1009.6 |
| 20260504225505 | 72 | 243 | 0.0 | 6.1 | 0.00 | 0.00 | 0.00 | 37 | 1009.3 |
| 20260504225004 | 72 | 244 | 0.9 | 6.1 | 0.00 | 0.00 | 0.00 | 37 | 1009.3 |
| 20260504224504 | 73 | 292 | 1.7 | 5.2 | 0.00 | 0.00 | 0.00 | 37 | 1009.4 |
| 20260504223503 | 73 | 255 | 0.9 | 6.1 | 0.00 | 0.00 | 0.00 | 36 | 1009.5 |
| 20260504223005 | 74 | 223 | 1.7 | 3.5 | 0.00 | 0.00 | 0.00 | 36 | 1009.3 |
| 20260504222503 | 74 | 295 | 0.9 | 5.2 | 0.00 | 0.00 | 0.00 | 36 | 1009.4 |
| 20260504222003 | 74 | 50 | 2.6 | 5.2 | 0.00 | 0.00 | 0.00 | 36 | 1009.5 |
| 20260504221003 | 74 | 244 | 4.3 | 7.0 | 0.00 | 0.00 | 0.00 | 35 | 1009.5 |
| 20260504220504 | 74 | 286 | 1.7 | 7.0 | 0.00 | 0.00 | 0.00 | 35 | 1009.5 |
| 20260504220005 | 75 | 309 | 1.7 | 7.0 | 0.00 | 0.00 | 0.00 | 35 | 1009.4 |
| 20260504215003 | 75 | 278 | 0.9 | 7.0 | 0.00 | 0.00 | 0.00 | 35 | 1009.5 |
| 20260504214504 | 75 | 273 | 1.7 | 7.0 | 0.00 | 0.00 | 0.00 | 35 | 1009.6 |
| 20260504214005 | 75 | 168 | 1.7 | 11.3 | 0.00 | 0.00 | 0.00 | 34 | 1009.7 |
| 20260504213503 | 75 | 218 | 0.9 | 11.3 | 0.00 | 0.00 | 0.00 | 35 | 1009.6 |
| 20260504213003 | 75 | 60 | 0.9 | 12.2 | 0.00 | 0.00 | 0.00 | 35 | 1009.7 |
| 20260504212504 | 75 | 321 | 0.9 | 12.2 | 0.00 | 0.00 | 0.00 | 34 | 1009.8 |
| 20260504211004 | 76 | 230 | 1.7 | 5.2 | 0.00 | 0.00 | 0.00 | 35 | 1009.9 |
| 20260504210505 | 75 | 196 | 0.9 | 5.2 | 0.00 | 0.00 | 0.00 | 35 | 1009.9 |
| 20260504210004 | 75 | 289 | 0.9 | 7.0 | 0.00 | 0.00 | 0.00 | 35 | 1009.8 |
| 20260504205505 | 75 | 208 | 2.6 | 7.0 | 0.00 | 0.00 | 0.00 | 34 | 1009.7 |
| 20260504205004 | 75 | 163 | 1.7 | 13.0 | 0.00 | 0.00 | 0.00 | 35 | 1009.5 |
| 20260504204504 | 76 | 220 | 5.2 | 13.0 | 0.00 | 0.00 | 0.00 | 34 | 1009.6 |
| 20260504204004 | 75 | 216 | 0.9 | 7.8 | 0.00 | 0.00 | 0.00 | 34 | 1009.9 |
| 20260504203004 | 76 | 263 | 0.9 | 6.1 | 0.00 | 0.00 | 0.00 | 35 | 1009.9 |
| 20260504202004 | 75 | 197 | 1.7 | 6.1 | 0.00 | 0.00 | 0.00 | 34 | 1009.8 |
| 20260504201504 | 75 | 277 | 3.5 | 13.0 | 0.00 | 0.00 | 0.00 | 35 | 1009.6 |
| 20260504201004 | 76 | 244 | 6.1 | 13.0 | 0.00 | 0.00 | 0.00 | 34 | 1010.0 |
| 20260504200503 | 76 | 354 | 3.5 | 7.0 | 0.00 | 0.00 | 0.00 | 35 | 1010.0 |
| 20260504195504 | 75 | 253 | 0.9 | 5.2 | 0.00 | 0.00 | 0.00 | 36 | 1010.1 |
| 20260504195004 | 75 | 322 | 0.9 | 6.1 | 0.00 | 0.00 | 0.00 | 36 | 1009.8 |
| 20260504194504 | 75 | 206 | 1.7 | 7.8 | 0.00 | 0.00 | 0.00 | 35 | 1010.2 |
| 20260504194003 | 75 | 258 | 3.5 | 7.8 | 0.00 | 0.00 | 0.00 | 35 | 1010.0 |
| 20260504193502 | 76 | 176 | 4.3 | 7.8 | 0.00 | 0.00 | 0.00 | 35 | 1010.1 |
| 20260504193002 | 75 | 251 | 0.0 | 7.8 | 0.00 | 0.00 | 0.00 | 36 | 1010.0 |
| 20260504191502 | 74 | 280 | 3.5 | 8.7 | 0.00 | 0.00 | 0.00 | 35 | 1010.3 |
| 20260504185502 | 75 | 280 | 4.3 | 7.8 | 0.00 | 0.00 | 0.00 | 35 | 1010.6 |
| 20260504185002 | 75 | 259 | 1.7 | 7.8 | 0.00 | 0.00 | 0.00 | 36 | 1010.8 |
| 20260504184502 | 73 | 342 | 0.9 | 7.8 | 0.00 | 0.00 | 0.00 | 37 | 1010.8 |
| 20260504184002 | 74 | 280 | 1.7 | 6.1 | 0.00 | 0.00 | 0.00 | 36 | 1011.0 |
| 20260504183503 | 74 | 308 | 1.7 | 7.8 | 0.00 | 0.00 | 0.00 | 38 | 1010.9 |
| 20260504183002 | 74 | 243 | 2.6 | 11.3 | 0.00 | 0.00 | 0.00 | 35 | 1011.0 |
| 20260504182502 | 74 | 308 | 4.3 | 11.3 | 0.00 | 0.00 | 0.00 | 36 | 1011.1 |
| 20260504182002 | 73 | 278 | 7.0 | 11.3 | 0.00 | 0.00 | 0.00 | 36 | 1011.2 |
| 20260504181502 | 73 | 248 | 1.7 | 7.0 | 0.00 | 0.00 | 0.00 | 38 | 1011.2 |
| 20260504181002 | 73 | 245 | 2.6 | 8.7 | 0.00 | 0.00 | 0.00 | 36 | 1011.2 |
| 20260504180502 | 73 | 225 | 1.7 | 8.7 | 0.00 | 0.00 | 0.00 | 36 | 1011.2 |
| 20260504180002 | 73 | 250 | 0.9 | 7.8 | 0.00 | 0.00 | 0.00 | 37 | 1011.2 |
| 20260504175502 | 73 | 203 | 1.7 | 7.8 | 0.00 | 0.00 | 0.00 | 36 | 1011.6 |
| 20260504174502 | 72 | 306 | 1.7 | 8.7 | 0.00 | 0.00 | 0.00 | 38 | 1011.8 |
| 20260504174002 | 70 | 194 | 0.9 | 8.7 | 0.00 | 0.00 | 0.00 | 39 | 1011.8 |
| 20260504173502 | 71 | 239 | 3.5 | 11.3 | 0.00 | 0.00 | 0.00 | 37 | 1011.8 |
| 20260504173001 | 71 | 218 | 4.3 | 11.3 | 0.00 | 0.00 | 0.00 | 38 | 1011.8 |
| 20260504172502 | 71 | 185 | 1.7 | 11.3 | 0.00 | 0.00 | 0.00 | 39 | 1011.6 |
| 20260504172002 | 71 | 213 | 1.7 | 12.2 | 0.00 | 0.00 | 0.00 | 39 | 1012.0 |
| 20260504171502 | 71 | 218 | 1.7 | 12.2 | 0.00 | 0.00 | 0.00 | 39 | 1011.9 |
| 20260504151000 | 67 | 170 | 1.7 | 6.1 | 0.00 | 0.00 | 0.00 | 42 | 1013.5 |
| 20260504150500 | 68 | 235 | 1.7 | 7.8 | 0.00 | 0.00 | 0.00 | 42 | 1013.6 |
| 20260504140924 | 65 | 264 | 3.5 | 8.7 | 0.00 | 0.00 | 0.00 | 46 | 1013.9 |
| 20260504130347 | 60 | 330 | 2.6 | 7.0 | 0.00 | 0.00 | 0.00 | 57 | 1014.4 |
| 20260504110311 | 50 | 220 | 1.7 | 5.2 | 0.00 | 0.00 | 0.00 | 72 | 1015.0 |
| 20260504081756 | 48 | 246 | 0.0 | 2.6 | 0.00 | 0.00 | 0.00 | 61 | 1014.4 |
| 20260504081256 | 48 | 255 | 0.0 | 1.7 | 0.00 | 0.00 | 0.00 | 60 | 1014.5 |
| 20260504080256 | 49 | 354 | 0.9 | 2.6 | 0.00 | 0.00 | 0.00 | 59 | 1014.5 |
| 20260504070255 | 48 | 228 | 0.9 | 1.7 | 0.00 | 0.00 | 0.00 | 61 | 1014.2 |
| 20260504060209 | 50 | 243 | 0.0 | 1.7 | 0.00 | 0.00 | 0.00 | 57 | 1014.3 |
| 20260504050708 | 50 | 245 | 1.7 | 1.7 | 0.00 | 0.00 | 0.00 | 57 | 1013.9 |
| 20260504050208 | 50 | 236 | 0.0 | 1.7 | 0.00 | 0.00 | 0.00 | 57 | 1014.0 |
| 20260504045701 | 50 | 248 | 0.0 | 1.7 | 0.00 | 0.00 | 0.00 | 56 | 1014.0 |
| 20260504045156 | 50 | 229 | 0.0 | 1.7 | 0.00 | 0.00 | 0.00 | 56 | 1013.7 |
| 20260504044656 | 51 | 242 | 0.0 | 1.7 | 0.00 | 0.00 | 0.00 | 55 | 1013.7 |
| 20260504044154 | 51 | 224 | 0.0 | 1.7 | 0.00 | 0.00 | 0.00 | 54 | 1013.9 |
| 20260504043655 | 51 | 253 | 0.9 | 3.5 | 0.00 | 0.00 | 0.00 | 53 | 1013.7 |
| 20260504042655 | 51 | 243 | 0.9 | 2.6 | 0.00 | 0.00 | 0.00 | 54 | 1013.6 |
| 20260504042155 | 51 | 275 | 0.0 | 2.6 | 0.00 | 0.00 | 0.00 | 54 | 1013.8 |
| 20260504041655 | 51 | 265 | 0.9 | 2.6 | 0.00 | 0.00 | 0.00 | 54 | 1013.6 |
| 20260504041155 | 51 | 220 | 0.9 | 2.6 | 0.00 | 0.00 | 0.00 | 54 | 1013.6 |
| 20260504040655 | 51 | 228 | 0.0 | 1.7 | 0.00 | 0.00 | 0.00 | 54 | 1013.4 |
| 20260504040149 | 51 | 211 | 0.9 | 1.7 | 0.00 | 0.00 | 0.00 | 53 | 1013.8 |
| 20260504035643 | 51 | 231 | 0.0 | 2.6 | 0.00 | 0.00 | 0.00 | 53 | 1013.3 |
| 20260504035143 | 51 | 270 | 0.0 | 2.6 | 0.00 | 0.00 | 0.00 | 52 | 1013.5 |
| 20260504034131 | 52 | 243 | 0.0 | 0.9 | 0.00 | 0.00 | 0.00 | 52 | 1013.4 |
| 20260504033631 | 52 | 240 | 0.0 | 1.7 | 0.00 | 0.00 | 0.00 | 51 | 1013.2 |
| 20260504032119 | 53 | 244 | 0.0 | 2.6 | 0.00 | 0.00 | 0.00 | 50 | 1013.3 |
| 20260504031613 | 53 | 230 | 0.0 | 2.6 | 0.00 | 0.00 | 0.00 | 50 | 1013.1 |
| 20260504031108 | 53 | 243 | 0.9 | 2.6 | 0.00 | 0.00 | 0.00 | 49 | 1013.2 |
| 20260504030608 | 53 | 239 | 0.0 | 2.6 | 0.00 | 0.00 | 0.00 | 49 | 1013.3 |
| 20260504025607 | 54 | 242 | 0.0 | 1.7 | 0.00 | 0.00 | 0.00 | 48 | 1013.1 |
| 20260504025107 | 54 | 257 | 0.9 | 1.7 | 0.00 | 0.00 | 0.00 | 47 | 1013.2 |
| 20260504024607 | 54 | 276 | 0.0 | 2.6 | 0.00 | 0.00 | 0.00 | 46 | 1013.2 |
| 20260504024107 | 55 | 230 | 0.0 | 2.6 | 0.00 | 0.00 | 0.00 | 45 | 1013.3 |
| 20260504023607 | 55 | 195 | 0.9 | 2.6 | 0.00 | 0.00 | 0.00 | 45 | 1013.3 |
| 20260504022607 | 55 | 236 | 0.9 | 3.5 | 0.00 | 0.00 | 0.00 | 44 | 1013.1 |
| 20260504022108 | 55 | 255 | 0.9 | 2.6 | 0.00 | 0.00 | 0.00 | 44 | 1013.2 |
| 20260504021607 | 55 | 248 | 0.0 | 2.6 | 0.00 | 0.00 | 0.00 | 45 | 1013.4 |
| 20260504021107 | 54 | 221 | 0.9 | 2.6 | 0.00 | 0.00 | 0.00 | 45 | 1013.1 |
| 20260504020607 | 54 | 183 | 0.9 | 2.6 | 0.00 | 0.00 | 0.00 | 45 | 1013.4 |
| 20260504015554 | 54 | 253 | 0.0 | 2.6 | 0.00 | 0.00 | 0.00 | 45 | 1013.3 |
| 20260504015056 | 55 | 278 | 0.9 | 1.7 | 0.00 | 0.00 | 0.00 | 44 | 1013.2 |
| 20260504013542 | 54 | 235 | 0.0 | 0.9 | 0.00 | 0.00 | 0.00 | 44 | 1013.2 |
| 20260504013035 | 54 | 239 | 0.9 | 0.9 | 0.00 | 0.00 | 0.00 | 45 | 1013.2 |
| 20260504012530 | 55 | 238 | 0.0 | 0.9 | 0.00 | 0.00 | 0.00 | 44 | 1013.1 |
| 20260504012031 | 55 | 245 | 0.0 | 0.9 | 0.00 | 0.00 | 0.00 | 43 | 1012.9 |
| 20260504011523 | 55 | 231 | 0.0 | 1.7 | 0.00 | 0.00 | 0.00 | 42 | 1012.8 |
| 20260504011018 | 56 | 234 | 0.0 | 2.6 | 0.00 | 0.00 | 0.00 | 41 | 1012.9 |
| 20260504010518 | 56 | 185 | 1.7 | 2.6 | 0.00 | 0.00 | 0.00 | 41 | 1012.9 |
| 20260504010011 | 56 | 256 | 0.9 | 2.6 | 0.00 | 0.00 | 0.00 | 40 | 1012.6 |
| 20260504005007 | 56 | 229 | 0.0 | 1.7 | 0.00 | 0.00 | 0.00 | 41 | 1012.3 |
| 20260504004459 | 57 | 238 | 0.0 | 2.6 | 0.00 | 0.00 | 0.00 | 40 | 1012.3 |
| 20260504003955 | 57 | 240 | 0.0 | 2.6 | 0.00 | 0.00 | 0.00 | 39 | 1012.5 |
| 20260504003455 | 58 | 238 | 0.9 | 2.6 | 0.00 | 0.00 | 0.00 | 38 | 1012.5 |
| 20260504001955 | 58 | 232 | 0.0 | 5.2 | 0.00 | 0.00 | 0.00 | 38 | 1012.1 |
| 20260504001454 | 58 | 267 | 2.6 | 5.2 | 0.00 | 0.00 | 0.00 | 37 | 1011.8 |
| 20260504000953 | 58 | 261 | 1.7 | 2.6 | 0.00 | 0.00 | 0.00 | 37 | 1011.9 |
| 20260504000455 | 58 | 205 | 0.9 | 5.2 | 0.00 | 0.00 | 0.00 | 37 | 1011.6 |
| 20260503235954 | 58 | 303 | 0.0 | 5.2 | 0.00 | 0.00 | 0.00 | 37 | 1011.7 |
| 20260503234947 | 58 | 217 | 0.9 | 3.5 | 0.00 | 0.00 | 0.00 | 36 | 1011.9 |
| 20260503234442 | 59 | 240 | 0.0 | 6.1 | 0.00 | 0.00 | 0.00 | 35 | 1011.9 |